Year,Month,Day,Hour,Minute,Value (Times are PST for temperature in C)
2024,04,17,00,00,2.60
2024,04,17,00,01,2.70
2024,04,17,00,02,2.70
2024,04,17,00,03,2.70
2024,04,17,00,04,2.70
2024,04,17,00,05,2.80
2024,04,17,00,06,2.80
2024,04,17,00,07,2.80
2024,04,17,00,08,2.80
2024,04,17,00,09,2.80
2024,04,17,00,10,2.80
2024,04,17,00,11,2.80
2024,04,17,00,12,2.80
2024,04,17,00,13,2.80
2024,04,17,00,14,2.80
2024,04,17,00,15,2.80
2024,04,17,00,16,2.80
2024,04,17,00,17,2.80
2024,04,17,00,18,2.80
2024,04,17,00,19,2.80
2024,04,17,00,20,2.80
2024,04,17,00,21,2.80
2024,04,17,00,22,2.80
2024,04,17,00,23,2.70
2024,04,17,00,24,2.70
2024,04,17,00,25,2.70
2024,04,17,00,26,2.70
2024,04,17,00,27,2.70
2024,04,17,00,28,2.60
2024,04,17,00,29,2.60
2024,04,17,00,30,2.60
2024,04,17,00,31,2.60
2024,04,17,00,32,2.60
2024,04,17,00,33,2.60
2024,04,17,00,34,2.50
2024,04,17,00,35,2.50
2024,04,17,00,36,2.50
2024,04,17,00,37,2.50
2024,04,17,00,38,2.40
2024,04,17,00,39,2.40
2024,04,17,00,40,2.40
2024,04,17,00,41,2.40
2024,04,17,00,42,2.40
2024,04,17,00,43,2.40
2024,04,17,00,44,2.40
2024,04,17,00,45,2.40
2024,04,17,00,46,2.40
2024,04,17,00,47,2.40
2024,04,17,00,48,2.40
2024,04,17,00,49,2.40
2024,04,17,00,50,2.40
2024,04,17,00,51,2.40
2024,04,17,00,52,2.40
2024,04,17,00,53,2.40
2024,04,17,00,54,2.40
2024,04,17,00,55,2.40
2024,04,17,00,56,2.30
2024,04,17,00,57,2.30
2024,04,17,00,58,2.30
2024,04,17,00,59,2.30
2024,04,17,01,00,2.30
2024,04,17,01,01,2.30
2024,04,17,01,02,2.30
2024,04,17,01,03,2.30
2024,04,17,01,04,2.30
2024,04,17,01,05,2.30
2024,04,17,01,06,2.30
2024,04,17,01,07,2.30
2024,04,17,01,08,2.30
2024,04,17,01,09,2.30
2024,04,17,01,10,2.30
2024,04,17,01,11,2.30
2024,04,17,01,12,2.30
2024,04,17,01,13,2.30
2024,04,17,01,14,2.30
2024,04,17,01,15,2.20
2024,04,17,01,16,2.20
2024,04,17,01,17,2.20
2024,04,17,01,18,2.20
2024,04,17,01,19,2.20
2024,04,17,01,20,2.20
2024,04,17,01,21,2.20
2024,04,17,01,22,2.20
2024,04,17,01,23,2.10
2024,04,17,01,24,2.10
2024,04,17,01,25,2.10
2024,04,17,01,26,2.10
2024,04,17,01,27,2.10
2024,04,17,01,28,2.10
2024,04,17,01,29,2.10
2024,04,17,01,30,2.10
2024,04,17,01,31,2.10
2024,04,17,01,32,2.00
2024,04,17,01,33,2.00
2024,04,17,01,34,2.00
2024,04,17,01,35,2.00
2024,04,17,01,36,2.00
2024,04,17,01,37,2.00
2024,04,17,01,38,2.00
2024,04,17,01,39,2.00
2024,04,17,01,40,2.00
2024,04,17,01,41,2.00
2024,04,17,01,42,2.00
2024,04,17,01,43,2.00
2024,04,17,01,44,1.90
2024,04,17,01,45,1.90
2024,04,17,01,46,1.90
2024,04,17,01,47,1.90
2024,04,17,01,48,1.90
2024,04,17,01,49,1.90
2024,04,17,01,50,1.90
2024,04,17,01,51,1.90
2024,04,17,01,52,1.90
2024,04,17,01,53,1.90
2024,04,17,01,54,1.90
2024,04,17,01,55,1.90
2024,04,17,01,56,1.90
2024,04,17,01,57,1.90
2024,04,17,01,58,1.90
2024,04,17,01,59,1.90
2024,04,17,02,00,1.90
2024,04,17,02,01,1.90
2024,04,17,02,02,1.90
2024,04,17,02,03,1.90
2024,04,17,02,04,1.90
2024,04,17,02,05,1.90
2024,04,17,02,06,1.90
2024,04,17,02,07,1.90
2024,04,17,02,08,1.90
2024,04,17,02,09,1.90
2024,04,17,02,10,1.90
2024,04,17,02,11,1.80
2024,04,17,02,12,1.80
2024,04,17,02,13,1.80
2024,04,17,02,14,1.80
2024,04,17,02,15,1.80
2024,04,17,02,16,1.80
2024,04,17,02,17,1.80
2024,04,17,02,18,1.80
2024,04,17,02,19,1.80
2024,04,17,02,20,1.80
2024,04,17,02,21,1.80
2024,04,17,02,22,1.90
2024,04,17,02,23,1.90
2024,04,17,02,24,1.90
2024,04,17,02,25,1.90
2024,04,17,02,26,1.90
2024,04,17,02,27,1.90
2024,04,17,02,28,1.90
2024,04,17,02,29,1.90
2024,04,17,02,30,1.90
2024,04,17,02,31,1.90
2024,04,17,02,32,1.90
2024,04,17,02,33,1.90
2024,04,17,02,34,1.90
2024,04,17,02,35,1.90
2024,04,17,02,36,1.90
2024,04,17,02,37,1.90
2024,04,17,02,38,1.90
2024,04,17,02,39,1.90
2024,04,17,02,40,1.90
2024,04,17,02,41,1.90
2024,04,17,02,42,1.90
2024,04,17,02,43,1.90
2024,04,17,02,44,1.90
2024,04,17,02,45,1.90
2024,04,17,02,46,1.80
2024,04,17,02,47,1.80
2024,04,17,02,48,1.80
2024,04,17,02,49,1.80
2024,04,17,02,50,1.80
2024,04,17,02,51,1.80
2024,04,17,02,52,1.80
2024,04,17,02,53,1.80
2024,04,17,02,54,1.80
2024,04,17,02,55,1.70
2024,04,17,02,56,1.70
2024,04,17,02,57,1.70
2024,04,17,02,58,1.70
2024,04,17,02,59,1.70
2024,04,17,03,00,1.70
2024,04,17,03,01,1.70
2024,04,17,03,02,1.70
2024,04,17,03,03,1.70
2024,04,17,03,04,1.70
2024,04,17,03,05,1.70
2024,04,17,03,06,1.70
2024,04,17,03,07,1.60
2024,04,17,03,08,1.60
2024,04,17,03,09,1.60
2024,04,17,03,10,1.60
2024,04,17,03,11,1.60
2024,04,17,03,12,1.60
2024,04,17,03,13,1.60
2024,04,17,03,14,1.60
2024,04,17,03,15,1.60
2024,04,17,03,16,1.60
2024,04,17,03,17,1.60
2024,04,17,03,18,1.60
2024,04,17,03,19,1.60
2024,04,17,03,20,1.60
2024,04,17,03,21,1.60
2024,04,17,03,22,1.60
2024,04,17,03,23,1.60
2024,04,17,03,24,1.60
2024,04,17,03,25,1.60
2024,04,17,03,26,1.60
2024,04,17,03,27,1.60
2024,04,17,03,28,1.60
2024,04,17,03,29,1.60
2024,04,17,03,30,1.60
2024,04,17,03,31,1.50
2024,04,17,03,32,1.50
2024,04,17,03,33,1.60
2024,04,17,03,34,1.50
2024,04,17,03,35,1.60
2024,04,17,03,36,1.60
2024,04,17,03,37,1.60
2024,04,17,03,38,1.60
2024,04,17,03,39,1.60
2024,04,17,03,40,1.60
2024,04,17,03,41,1.60
2024,04,17,03,42,1.50
2024,04,17,03,43,1.50
2024,04,17,03,44,1.50
2024,04,17,03,45,1.50
2024,04,17,03,46,1.50
2024,04,17,03,47,1.50
2024,04,17,03,48,1.50
2024,04,17,03,49,1.50
2024,04,17,03,50,1.50
2024,04,17,03,51,1.50
2024,04,17,03,52,1.50
2024,04,17,03,53,1.50
2024,04,17,03,54,1.50
2024,04,17,03,55,1.50
2024,04,17,03,56,1.50
2024,04,17,03,57,1.50
2024,04,17,03,58,1.50
2024,04,17,03,59,1.40
2024,04,17,04,00,1.40
2024,04,17,04,01,1.40
2024,04,17,04,02,1.40
2024,04,17,04,03,1.40
2024,04,17,04,04,1.40
2024,04,17,04,05,1.40
2024,04,17,04,06,1.50
2024,04,17,04,07,1.50
2024,04,17,04,08,1.50
2024,04,17,04,09,1.50
2024,04,17,04,10,1.50
2024,04,17,04,11,1.40
2024,04,17,04,12,1.40
2024,04,17,04,13,1.40
2024,04,17,04,14,1.40
2024,04,17,04,15,1.40
2024,04,17,04,16,1.40
2024,04,17,04,17,1.40
2024,04,17,04,18,1.40
2024,04,17,04,19,1.40
2024,04,17,04,20,1.40
2024,04,17,04,21,1.40
2024,04,17,04,22,1.40
2024,04,17,04,23,1.40
2024,04,17,04,24,1.40
2024,04,17,04,25,1.40
2024,04,17,04,26,1.40
2024,04,17,04,27,1.40
2024,04,17,04,28,1.40
2024,04,17,04,29,1.40
2024,04,17,04,30,1.40
2024,04,17,04,31,1.40
2024,04,17,04,32,1.40
2024,04,17,04,33,1.40
2024,04,17,04,34,1.30
2024,04,17,04,35,1.30
2024,04,17,04,36,1.30
2024,04,17,04,37,1.30
2024,04,17,04,38,1.30
2024,04,17,04,39,1.30
2024,04,17,04,40,1.30
2024,04,17,04,41,1.30
2024,04,17,04,42,1.30
2024,04,17,04,43,1.30
2024,04,17,04,44,1.30
2024,04,17,04,45,1.30
2024,04,17,04,46,1.30
2024,04,17,04,47,1.30
2024,04,17,04,48,1.20
2024,04,17,04,49,1.20
2024,04,17,04,50,1.20
2024,04,17,04,51,1.20
2024,04,17,04,52,1.20
2024,04,17,04,53,1.20
2024,04,17,04,54,1.20
2024,04,17,04,55,1.20
2024,04,17,04,56,1.20
2024,04,17,04,57,1.20
2024,04,17,04,58,1.20
2024,04,17,04,59,1.20
2024,04,17,05,00,1.20
2024,04,17,05,01,1.20
2024,04,17,05,02,1.20
2024,04,17,05,03,1.20
2024,04,17,05,04,1.20
2024,04,17,05,05,1.20
2024,04,17,05,06,1.20
2024,04,17,05,07,1.20
2024,04,17,05,08,1.20
2024,04,17,05,09,1.20
2024,04,17,05,10,1.20
2024,04,17,05,11,1.20
2024,04,17,05,12,1.20
2024,04,17,05,13,1.20
2024,04,17,05,14,1.20
2024,04,17,05,15,1.20
2024,04,17,05,16,1.20
2024,04,17,05,17,1.20
2024,04,17,05,18,1.20
2024,04,17,05,19,1.20
2024,04,17,05,20,1.20
2024,04,17,05,21,1.20
2024,04,17,05,22,1.20
2024,04,17,05,23,1.20
2024,04,17,05,24,1.20
2024,04,17,05,25,1.10
2024,04,17,05,26,1.10
2024,04,17,05,27,1.10
2024,04,17,05,28,1.10
2024,04,17,05,29,1.10
2024,04,17,05,30,1.10
2024,04,17,05,31,1.10
2024,04,17,05,32,1.10
2024,04,17,05,33,1.10
2024,04,17,05,34,1.00
2024,04,17,05,35,1.00
2024,04,17,05,36,1.00
2024,04,17,05,37,1.00
2024,04,17,05,38,1.00
2024,04,17,05,39,1.00
2024,04,17,05,40,1.00
2024,04,17,05,41,1.00
2024,04,17,05,42,1.00
2024,04,17,05,43,1.00
2024,04,17,05,44,1.00
2024,04,17,05,45,1.00
2024,04,17,05,46,0.90
2024,04,17,05,47,0.90
2024,04,17,05,48,0.90
2024,04,17,05,49,0.90
2024,04,17,05,50,0.90
2024,04,17,05,51,0.90
2024,04,17,05,52,0.90
2024,04,17,05,53,0.90
2024,04,17,05,54,1.00
2024,04,17,05,55,1.00
2024,04,17,05,56,1.00
2024,04,17,05,57,1.00
2024,04,17,05,58,1.00
2024,04,17,05,59,1.00
2024,04,17,06,00,1.00
2024,04,17,06,01,1.00
2024,04,17,06,02,1.00
2024,04,17,06,03,1.00
2024,04,17,06,04,1.00
2024,04,17,06,05,1.00
2024,04,17,06,06,1.00
2024,04,17,06,07,1.00
2024,04,17,06,08,0.90
2024,04,17,06,09,0.90
2024,04,17,06,10,0.90
2024,04,17,06,11,0.90
2024,04,17,06,12,0.90
2024,04,17,06,13,0.90
2024,04,17,06,14,0.90
2024,04,17,06,15,0.80
2024,04,17,06,16,0.80
2024,04,17,06,17,0.80
2024,04,17,06,18,0.80
2024,04,17,06,19,0.80
2024,04,17,06,20,0.80
2024,04,17,06,21,0.80
2024,04,17,06,22,0.80
2024,04,17,06,23,0.80
2024,04,17,06,24,0.80
2024,04,17,06,25,0.80
2024,04,17,06,26,0.80
2024,04,17,06,27,0.80
2024,04,17,06,28,0.80
2024,04,17,06,29,0.80
2024,04,17,06,30,0.90
2024,04,17,06,31,0.90
2024,04,17,06,32,0.90
2024,04,17,06,33,0.90
2024,04,17,06,34,0.90
2024,04,17,06,35,0.80
2024,04,17,06,36,0.80
2024,04,17,06,37,0.80
2024,04,17,06,38,0.80
2024,04,17,06,39,0.80
2024,04,17,06,40,0.80
2024,04,17,06,41,0.80
2024,04,17,06,42,0.80
2024,04,17,06,43,0.80
2024,04,17,06,44,0.80
2024,04,17,06,45,0.80
2024,04,17,06,46,0.80
2024,04,17,06,47,0.80
2024,04,17,06,48,0.80
2024,04,17,06,49,0.80
2024,04,17,06,50,0.80
2024,04,17,06,51,0.80
2024,04,17,06,52,0.80
2024,04,17,06,53,0.80
2024,04,17,06,54,0.80
2024,04,17,06,55,0.80
2024,04,17,06,56,0.80
2024,04,17,06,57,0.80
2024,04,17,06,58,0.80
2024,04,17,06,59,0.80
2024,04,17,07,00,0.80
2024,04,17,07,01,0.80
2024,04,17,07,02,0.90
2024,04,17,07,03,0.90
2024,04,17,07,04,0.90
2024,04,17,07,05,0.90
2024,04,17,07,06,0.90
2024,04,17,07,07,0.90
2024,04,17,07,08,1.00
2024,04,17,07,09,1.00
2024,04,17,07,10,1.10
2024,04,17,07,11,1.10
2024,04,17,07,12,1.20
2024,04,17,07,13,1.20
2024,04,17,07,14,1.20
2024,04,17,07,15,1.30
2024,04,17,07,16,1.30
2024,04,17,07,17,1.30
2024,04,17,07,18,1.40
2024,04,17,07,19,1.40
2024,04,17,07,20,1.50
2024,04,17,07,21,1.60
2024,04,17,07,22,1.70
2024,04,17,07,23,1.80
2024,04,17,07,24,1.90
2024,04,17,07,25,2.10
2024,04,17,07,26,2.20
2024,04,17,07,27,2.30
2024,04,17,07,28,2.50
2024,04,17,07,29,2.60
2024,04,17,07,30,2.80
2024,04,17,07,31,2.90
2024,04,17,07,32,3.10
2024,04,17,07,33,3.20
2024,04,17,07,34,3.40
2024,04,17,07,35,3.60
2024,04,17,07,36,3.80
2024,04,17,07,37,4.00
2024,04,17,07,38,4.10
2024,04,17,07,39,4.30
2024,04,17,07,40,4.50
2024,04,17,07,41,4.60
2024,04,17,07,42,4.60
2024,04,17,07,43,4.70
2024,04,17,07,44,4.70
2024,04,17,07,45,4.70
2024,04,17,07,46,4.70
2024,04,17,07,47,4.80
2024,04,17,07,48,4.80
2024,04,17,07,49,4.80
2024,04,17,07,50,4.80
2024,04,17,07,51,4.80
2024,04,17,07,52,4.90
2024,04,17,07,53,5.00
2024,04,17,07,54,5.10
2024,04,17,07,55,5.20
2024,04,17,07,56,5.30
2024,04,17,07,57,5.30
2024,04,17,07,58,5.40
2024,04,17,07,59,5.50
2024,04,17,08,00,5.60
2024,04,17,08,01,5.70
2024,04,17,08,02,5.80
2024,04,17,08,03,5.90
2024,04,17,08,04,6.00
2024,04,17,08,05,6.10
2024,04,17,08,06,6.20
2024,04,17,08,07,6.30
2024,04,17,08,08,6.40
2024,04,17,08,09,6.50
2024,04,17,08,10,6.60
2024,04,17,08,11,6.70
2024,04,17,08,12,6.80
2024,04,17,08,13,6.80
2024,04,17,08,14,6.90
2024,04,17,08,15,7.00
2024,04,17,08,16,7.00
2024,04,17,08,17,7.10
2024,04,17,08,18,7.20
2024,04,17,08,19,7.30
2024,04,17,08,20,7.40
2024,04,17,08,21,7.50
2024,04,17,08,22,7.60
2024,04,17,08,23,7.70
2024,04,17,08,24,7.80
2024,04,17,08,25,7.90
2024,04,17,08,26,8.00
2024,04,17,08,27,8.20
2024,04,17,08,28,8.30
2024,04,17,08,29,8.40
2024,04,17,08,30,8.50
2024,04,17,08,31,8.70
2024,04,17,08,32,8.80
2024,04,17,08,33,8.90
2024,04,17,08,34,9.10
2024,04,17,08,35,9.20
2024,04,17,08,36,9.30
2024,04,17,08,37,9.50
2024,04,17,08,38,9.60
2024,04,17,08,39,9.70
2024,04,17,08,40,9.80
2024,04,17,08,41,9.90
2024,04,17,08,42,9.90
2024,04,17,08,43,10.00
2024,04,17,08,44,10.10
2024,04,17,08,45,10.10
2024,04,17,08,46,10.10
2024,04,17,08,47,10.10
2024,04,17,08,48,10.00
2024,04,17,08,49,10.00
2024,04,17,08,50,9.90
2024,04,17,08,51,9.90
2024,04,17,08,52,9.90
2024,04,17,08,53,9.90
2024,04,17,08,54,9.90
2024,04,17,08,55,10.00
2024,04,17,08,56,10.00
2024,04,17,08,57,10.10
2024,04,17,08,58,10.10
2024,04,17,08,59,10.20
2024,04,17,09,00,10.20
2024,04,17,09,01,10.30
2024,04,17,09,02,10.30
2024,04,17,09,03,10.40
2024,04,17,09,04,10.50
2024,04,17,09,05,10.50
2024,04,17,09,06,10.60
2024,04,17,09,07,10.60
2024,04,17,09,08,10.70
2024,04,17,09,09,10.70
2024,04,17,09,10,10.70
2024,04,17,09,11,10.70
2024,04,17,09,12,10.70
2024,04,17,09,13,10.70
2024,04,17,09,14,10.70
2024,04,17,09,15,10.70
2024,04,17,09,16,10.70
2024,04,17,09,17,10.70
2024,04,17,09,18,10.70
2024,04,17,09,19,10.80
2024,04,17,09,20,10.80
2024,04,17,09,21,10.90
2024,04,17,09,22,11.00
2024,04,17,09,23,11.00
2024,04,17,09,24,11.10
2024,04,17,09,25,11.20
2024,04,17,09,26,11.20
2024,04,17,09,27,11.30
2024,04,17,09,28,11.30
2024,04,17,09,29,11.30
2024,04,17,09,30,11.40
2024,04,17,09,31,11.40
2024,04,17,09,32,11.50
2024,04,17,09,33,11.50
2024,04,17,09,34,11.50
2024,04,17,09,35,11.50
2024,04,17,09,36,11.50
2024,04,17,09,37,11.60
2024,04,17,09,38,11.60
2024,04,17,09,39,11.60
2024,04,17,09,40,11.60
2024,04,17,09,41,11.50
2024,04,17,09,42,11.50
2024,04,17,09,43,11.50
2024,04,17,09,44,11.40
2024,04,17,09,45,11.40
2024,04,17,09,46,11.40
2024,04,17,09,47,11.30
2024,04,17,09,48,11.30
2024,04,17,09,49,11.30
2024,04,17,09,50,11.30
2024,04,17,09,51,11.30
2024,04,17,09,52,11.30
2024,04,17,09,53,11.20
2024,04,17,09,54,11.20
2024,04,17,09,55,11.20
2024,04,17,09,56,11.30
2024,04,17,09,57,11.30
2024,04,17,09,58,11.30
2024,04,17,09,59,11.40
2024,04,17,10,00,11.40
2024,04,17,10,01,11.40
2024,04,17,10,02,11.50
2024,04,17,10,03,11.50
2024,04,17,10,04,11.50
2024,04,17,10,05,11.60
2024,04,17,10,06,11.60
2024,04,17,10,07,11.60
2024,04,17,10,08,11.60
2024,04,17,10,09,11.50
2024,04,17,10,10,11.50
2024,04,17,10,11,11.40
2024,04,17,10,12,11.40
2024,04,17,10,13,11.40
2024,04,17,10,14,11.40
2024,04,17,10,15,11.40
2024,04,17,10,16,11.40
2024,04,17,10,17,11.40
2024,04,17,10,18,11.40
2024,04,17,10,19,11.50
2024,04,17,10,20,11.60
2024,04,17,10,21,11.60
2024,04,17,10,22,11.70
2024,04,17,10,23,11.70
2024,04,17,10,24,11.70
2024,04,17,10,25,11.70
2024,04,17,10,26,11.70
2024,04,17,10,27,11.70
2024,04,17,10,28,11.70
2024,04,17,10,29,11.70
2024,04,17,10,30,11.70
2024,04,17,10,31,11.70
2024,04,17,10,32,11.80
2024,04,17,10,33,11.80
2024,04,17,10,34,11.80
2024,04,17,10,35,11.90
2024,04,17,10,36,11.90
2024,04,17,10,37,12.00
2024,04,17,10,38,12.00
2024,04,17,10,39,12.10
2024,04,17,10,40,12.10
2024,04,17,10,41,12.10
2024,04,17,10,42,12.10
2024,04,17,10,43,12.20
2024,04,17,10,44,12.20
2024,04,17,10,45,12.30
2024,04,17,10,46,12.30
2024,04,17,10,47,12.30
2024,04,17,10,48,12.40
2024,04,17,10,49,12.40
2024,04,17,10,50,12.40
2024,04,17,10,51,12.40
2024,04,17,10,52,12.40
2024,04,17,10,53,12.40
2024,04,17,10,54,12.40
2024,04,17,10,55,12.40
2024,04,17,10,56,12.40
2024,04,17,10,57,12.40
2024,04,17,10,58,12.40
2024,04,17,10,59,12.50
2024,04,17,11,00,12.50
2024,04,17,11,01,12.50
2024,04,17,11,02,12.60
2024,04,17,11,03,12.60
2024,04,17,11,04,12.60
2024,04,17,11,05,12.60
2024,04,17,11,06,12.60
2024,04,17,11,07,12.60
2024,04,17,11,08,12.60
2024,04,17,11,09,12.60
2024,04,17,11,10,12.60
2024,04,17,11,11,12.60
2024,04,17,11,12,12.60
2024,04,17,11,13,12.60
2024,04,17,11,14,12.50
2024,04,17,11,15,12.40
2024,04,17,11,16,12.40
2024,04,17,11,17,12.30
2024,04,17,11,18,12.30
2024,04,17,11,19,12.30
2024,04,17,11,20,12.40
2024,04,17,11,21,12.40
2024,04,17,11,22,12.50
2024,04,17,11,23,12.50
2024,04,17,11,24,12.60
2024,04,17,11,25,12.60
2024,04,17,11,26,12.70
2024,04,17,11,27,12.70
2024,04,17,11,28,12.80
2024,04,17,11,29,12.80
2024,04,17,11,30,12.90
2024,04,17,11,31,12.90
2024,04,17,11,32,13.00
2024,04,17,11,33,13.00
2024,04,17,11,34,13.10
2024,04,17,11,35,13.20
2024,04,17,11,36,13.20
2024,04,17,11,37,13.20
2024,04,17,11,38,13.20
2024,04,17,11,39,13.20
2024,04,17,11,40,13.20
2024,04,17,11,41,13.20
2024,04,17,11,42,13.20
2024,04,17,11,43,13.20
2024,04,17,11,44,13.20
2024,04,17,11,45,13.20
2024,04,17,11,46,13.20
2024,04,17,11,47,13.20
2024,04,17,11,48,13.10
2024,04,17,11,49,13.10
2024,04,17,11,50,13.10
2024,04,17,11,51,13.00
2024,04,17,11,52,12.90
2024,04,17,11,53,13.00
2024,04,17,11,54,13.00
2024,04,17,11,55,13.00
2024,04,17,11,56,13.10
2024,04,17,11,57,13.20
2024,04,17,11,58,13.20
2024,04,17,11,59,13.20
2024,04,17,12,00,13.20
2024,04,17,12,01,13.20
2024,04,17,12,02,13.20
2024,04,17,12,03,13.20
2024,04,17,12,04,13.20
2024,04,17,12,05,13.20
2024,04,17,12,06,13.20
2024,04,17,12,07,13.20
2024,04,17,12,08,13.10
2024,04,17,12,09,13.00
2024,04,17,12,10,13.00
2024,04,17,12,11,13.00
2024,04,17,12,12,12.90
2024,04,17,12,13,12.90
2024,04,17,12,14,13.00
2024,04,17,12,15,13.00
2024,04,17,12,16,13.10
2024,04,17,12,17,13.10
2024,04,17,12,18,13.10
2024,04,17,12,19,13.10
2024,04,17,12,20,13.10
2024,04,17,12,21,13.20
2024,04,17,12,22,13.10
2024,04,17,12,23,13.10
2024,04,17,12,24,13.10
2024,04,17,12,25,13.10
2024,04,17,12,26,13.00
2024,04,17,12,27,13.00
2024,04,17,12,28,13.00
2024,04,17,12,29,12.90
2024,04,17,12,30,12.80
2024,04,17,12,31,12.80
2024,04,17,12,32,12.80
2024,04,17,12,33,12.80
2024,04,17,12,34,12.80
2024,04,17,12,35,12.80
2024,04,17,12,36,12.90
2024,04,17,12,37,13.00
2024,04,17,12,38,13.10
2024,04,17,12,39,13.20
2024,04,17,12,40,13.30
2024,04,17,12,41,13.30
2024,04,17,12,42,13.30
2024,04,17,12,43,13.40
2024,04,17,12,44,13.40
2024,04,17,12,45,13.40
2024,04,17,12,46,13.50
2024,04,17,12,47,13.50
2024,04,17,12,48,13.50
2024,04,17,12,49,13.50
2024,04,17,12,50,13.50
2024,04,17,12,51,13.50
2024,04,17,12,52,13.40
2024,04,17,12,53,13.40
2024,04,17,12,54,13.40
2024,04,17,12,55,13.40
2024,04,17,12,56,13.40
2024,04,17,12,57,13.50
2024,04,17,12,58,13.50
2024,04,17,12,59,13.60
2024,04,17,13,00,13.50
2024,04,17,13,01,13.40
2024,04,17,13,02,13.30
2024,04,17,13,03,13.30
2024,04,17,13,04,13.20
2024,04,17,13,05,13.30
2024,04,17,13,06,13.30
2024,04,17,13,07,13.40
2024,04,17,13,08,13.40
2024,04,17,13,09,13.50
2024,04,17,13,10,13.50
2024,04,17,13,11,13.50
2024,04,17,13,12,13.50
2024,04,17,13,13,13.40
2024,04,17,13,14,13.40
2024,04,17,13,15,13.40
2024,04,17,13,16,13.40
2024,04,17,13,17,13.50
2024,04,17,13,18,13.50
2024,04,17,13,19,13.60
2024,04,17,13,20,13.70
2024,04,17,13,21,13.70
2024,04,17,13,22,13.70
2024,04,17,13,23,13.70
2024,04,17,13,24,13.70
2024,04,17,13,25,13.70
2024,04,17,13,26,13.70
2024,04,17,13,27,13.80
2024,04,17,13,28,13.80
2024,04,17,13,29,13.90
2024,04,17,13,30,13.90
2024,04,17,13,31,13.90
2024,04,17,13,32,13.90
2024,04,17,13,33,13.90
2024,04,17,13,34,13.90
2024,04,17,13,35,13.90
2024,04,17,13,36,13.80
2024,04,17,13,37,13.80
2024,04,17,13,38,13.80
2024,04,17,13,39,13.80
2024,04,17,13,40,13.80
2024,04,17,13,41,13.80
2024,04,17,13,42,13.80
2024,04,17,13,43,13.80
2024,04,17,13,44,13.80
2024,04,17,13,45,13.80
2024,04,17,13,46,13.80
2024,04,17,13,47,13.80
2024,04,17,13,48,13.70
2024,04,17,13,49,13.70
2024,04,17,13,50,13.70
2024,04,17,13,51,13.60
2024,04,17,13,52,13.50
2024,04,17,13,53,13.50
2024,04,17,13,54,13.40
2024,04,17,13,55,13.40
2024,04,17,13,56,13.40
2024,04,17,13,57,13.40
2024,04,17,13,58,13.40
2024,04,17,13,59,13.40
2024,04,17,14,00,13.40
2024,04,17,14,01,13.50
2024,04,17,14,02,13.60
2024,04,17,14,03,13.60
2024,04,17,14,04,13.70
2024,04,17,14,05,13.70
2024,04,17,14,06,13.70
2024,04,17,14,07,13.70
2024,04,17,14,08,13.80
2024,04,17,14,09,13.80
2024,04,17,14,10,13.80
2024,04,17,14,11,13.80
2024,04,17,14,12,13.90
2024,04,17,14,13,13.90
2024,04,17,14,14,13.90
2024,04,17,14,15,13.90
2024,04,17,14,16,13.90
2024,04,17,14,17,13.90
2024,04,17,14,18,13.90
2024,04,17,14,19,13.90
2024,04,17,14,20,13.90
2024,04,17,14,21,13.90
2024,04,17,14,22,14.00
2024,04,17,14,23,14.00
2024,04,17,14,24,14.10
2024,04,17,14,25,14.10
2024,04,17,14,26,14.10
2024,04,17,14,27,14.10
2024,04,17,14,28,14.20
2024,04,17,14,29,14.20
2024,04,17,14,30,14.30
2024,04,17,14,31,14.30
2024,04,17,14,32,14.30
2024,04,17,14,33,14.30
2024,04,17,14,34,14.30
2024,04,17,14,35,14.30
2024,04,17,14,36,14.30
2024,04,17,14,37,14.30
2024,04,17,14,38,14.30
2024,04,17,14,39,14.40
2024,04,17,14,40,14.40
2024,04,17,14,41,14.40
2024,04,17,14,42,14.40
2024,04,17,14,43,14.50
2024,04,17,14,44,14.50
2024,04,17,14,45,14.50
2024,04,17,14,46,14.60
2024,04,17,14,47,14.60
2024,04,17,14,48,14.60
2024,04,17,14,49,14.60
2024,04,17,14,50,14.60
2024,04,17,14,51,14.60
2024,04,17,14,52,14.50
2024,04,17,14,53,14.50
2024,04,17,14,54,14.50
2024,04,17,14,55,14.50
2024,04,17,14,56,14.50
2024,04,17,14,57,14.50
2024,04,17,14,58,14.60
2024,04,17,14,59,14.50
2024,04,17,15,00,14.50
2024,04,17,15,01,14.40
2024,04,17,15,02,14.40
2024,04,17,15,03,14.40
2024,04,17,15,04,14.40
2024,04,17,15,05,14.50
2024,04,17,15,06,14.50
2024,04,17,15,07,14.50
2024,04,17,15,08,14.60
2024,04,17,15,09,14.60
2024,04,17,15,10,14.60
2024,04,17,15,11,14.60
2024,04,17,15,12,14.60
2024,04,17,15,13,14.60
2024,04,17,15,14,14.70
2024,04,17,15,15,14.70
2024,04,17,15,16,14.70
2024,04,17,15,17,14.60
2024,04,17,15,18,14.60
2024,04,17,15,19,14.60
2024,04,17,15,20,14.60
2024,04,17,15,21,14.60
2024,04,17,15,22,14.60
2024,04,17,15,23,14.70
2024,04,17,15,24,14.70
2024,04,17,15,25,14.70
2024,04,17,15,26,14.80
2024,04,17,15,27,14.80
2024,04,17,15,28,14.80
2024,04,17,15,29,14.80
2024,04,17,15,30,14.90
2024,04,17,15,31,14.90
2024,04,17,15,32,14.90
2024,04,17,15,33,14.90
2024,04,17,15,34,15.00
2024,04,17,15,35,15.00
2024,04,17,15,36,15.00
2024,04,17,15,37,15.00
2024,04,17,15,38,15.00
2024,04,17,15,39,15.00
2024,04,17,15,40,15.00
2024,04,17,15,41,15.00
2024,04,17,15,42,15.00
2024,04,17,15,43,15.00
2024,04,17,15,44,14.90
2024,04,17,15,45,14.90
2024,04,17,15,46,15.00
2024,04,17,15,47,15.00
2024,04,17,15,48,15.10
2024,04,17,15,49,15.10
2024,04,17,15,50,15.20
2024,04,17,15,51,15.20
2024,04,17,15,52,15.20
2024,04,17,15,53,15.30
2024,04,17,15,54,15.30
2024,04,17,15,55,15.40
2024,04,17,15,56,15.40
2024,04,17,15,57,15.40
2024,04,17,15,58,15.50
2024,04,17,15,59,15.60
2024,04,17,16,00,15.60
2024,04,17,16,01,15.60
2024,04,17,16,02,15.70
2024,04,17,16,03,15.80
2024,04,17,16,04,15.80
2024,04,17,16,05,15.80
2024,04,17,16,06,15.70
2024,04,17,16,07,15.70
2024,04,17,16,08,15.60
2024,04,17,16,09,15.60
2024,04,17,16,10,15.60
2024,04,17,16,11,15.60
2024,04,17,16,12,15.60
2024,04,17,16,13,15.60
2024,04,17,16,14,15.60
2024,04,17,16,15,15.50
2024,04,17,16,16,15.50
2024,04,17,16,17,15.50
2024,04,17,16,18,15.40
2024,04,17,16,19,15.40
2024,04,17,16,20,15.30
2024,04,17,16,21,15.30
2024,04,17,16,22,15.30
2024,04,17,16,23,15.30
2024,04,17,16,24,15.30
2024,04,17,16,25,15.30
2024,04,17,16,26,15.30
2024,04,17,16,27,15.30
2024,04,17,16,28,15.30
2024,04,17,16,29,15.30
2024,04,17,16,30,15.30
2024,04,17,16,31,15.20
2024,04,17,16,32,15.20
2024,04,17,16,33,15.20
2024,04,17,16,34,15.20
2024,04,17,16,35,15.10
2024,04,17,16,36,15.10
2024,04,17,16,37,15.10
2024,04,17,16,38,15.10
2024,04,17,16,39,15.00
2024,04,17,16,40,15.00
2024,04,17,16,41,14.90
2024,04,17,16,42,14.80
2024,04,17,16,43,14.80
2024,04,17,16,44,14.70
2024,04,17,16,45,14.70
2024,04,17,16,46,14.60
2024,04,17,16,47,14.50
2024,04,17,16,48,14.40
2024,04,17,16,49,14.30
2024,04,17,16,50,14.20
2024,04,17,16,51,14.20
2024,04,17,16,52,14.10
2024,04,17,16,53,14.10
2024,04,17,16,54,14.10
2024,04,17,16,55,14.10
2024,04,17,16,56,14.10
2024,04,17,16,57,14.10
2024,04,17,16,58,14.10
2024,04,17,16,59,14.10
2024,04,17,17,00,14.10
2024,04,17,17,01,14.10
2024,04,17,17,02,14.20
2024,04,17,17,03,14.20
2024,04,17,17,04,14.30
2024,04,17,17,05,14.30
2024,04,17,17,06,14.40
2024,04,17,17,07,14.40
2024,04,17,17,08,14.50
2024,04,17,17,09,14.50
2024,04,17,17,10,14.60
2024,04,17,17,11,14.70
2024,04,17,17,12,14.70
2024,04,17,17,13,14.80
2024,04,17,17,14,14.80
2024,04,17,17,15,14.90
2024,04,17,17,16,14.90
2024,04,17,17,17,14.90
2024,04,17,17,18,15.00
2024,04,17,17,19,15.00
2024,04,17,17,20,15.00
2024,04,17,17,21,15.10
2024,04,17,17,22,15.10
2024,04,17,17,23,15.10
2024,04,17,17,24,15.00
2024,04,17,17,25,15.00
2024,04,17,17,26,15.00
2024,04,17,17,27,15.00
2024,04,17,17,28,14.90
2024,04,17,17,29,14.80
2024,04,17,17,30,14.70
2024,04,17,17,31,14.60
2024,04,17,17,32,14.50
2024,04,17,17,33,14.40
2024,04,17,17,34,14.20
2024,04,17,17,35,14.10
2024,04,17,17,36,14.00
2024,04,17,17,37,14.00
2024,04,17,17,38,13.90
2024,04,17,17,39,13.90
2024,04,17,17,40,13.80
2024,04,17,17,41,13.80
2024,04,17,17,42,13.80